Theta_e
325 325 323 324 330 330 333 329 323 333 340 337 340 341 341 340 343 345 340 340 340 340 340 339 336 334 333 330 325 322 323 325 326 330 336 337 337 333 335 336 337 337 335 330 327 325 319 315 314
319 325 323 325 331 332 331 326 324 334 338 336 337 339 341 342 339 339 339 339 340 341 341 341 337 337 337 335 332 331 330 328 326 325 324 325 329 333 332 338 338 338 337 334 331 329 327 324 317
315 323 326 329 330 331 331 325 326 336 332 334 337 336 339 340 339 338 338 339 341 341 340 339 338 337 338 338 338 338 336 336 336 335 335 335 335 334 331 330 335 335 336 336 333 332 331 328 327
321 323 321 329 329 328 327 323 331 333 329 331 336 339 335 335 337 337 339 339 342 341 340 341 339 339 339 338 338 338 339 338 337 337 337 337 337 336 336 335 335 334 332 332 332 331 331 331 329
323 323 328 329 329 325 319 321 332 333 331 332 334 338 337 333 337 338 339 339 340 340 341 341 340 340 339 339 338 337 336 336 335 334 334 334 334 333 333 333 334 334 335 335 335 335 335 333 330
324 324 327 328 328 321 321 326 331 331 331 331 334 338 337 335 338 338 338 339 340 341 341 340 340 339 337 336 336 334 333 334 333 333 333 332 331 330 329 329 330 332 334 335 335 336 337 336 335
324 325 324 325 326 324 324 326 329 330 331 332 335 339 334 335 337 337 337 338 339 340 340 340 339 338 337 334 334 333 334 333 333 331 330 329 328 327 324 323 323 325 326 327 329 333 335 335 336
321 324 324 325 325 325 322 324 324 329 330 330 333 337 337 335 337 336 336 338 340 339 336 337 337 335 332 332 332 332 331 331 330 328 324 320 317 315 314 312 311 311 312 313 313 316 327 331 333
316 323 323 324 324 325 320 324 320 321 327 326 328 334 335 335 338 337 338 341 338 336 336 334 333 333 333 333 332 331 328 324 321 316 312 310 309 309 308 308 308 308 308 308 309 309 309 312 317
321 323 321 320 323 324 320 323 323 326 327 327 326 331 331 336 336 337 338 335 335 335 334 333 333 333 332 332 328 322 316 311 309 308 308 308 308 307 307 307 307 307 307 307 307 307 308 308 311
319 322 319 315 317 319 321 322 323 326 329 327 328 328 332 335 336 335 335 335 335 334 334 333 333 331 328 320 312 309 308 308 308 308 308 308 308 308 308 309 309 309 309 308 308 307 307 306 307
319 314 316 314 315 317 320 321 323 326 324 323 326 328 333 334 335 335 336 335 334 333 331 330 326 318 312 309 308 308 307 308 308 308 308 309 309 309 310 310 310 310 310 311 311 311 310 309 308
319 313 312 313 313 316 317 320 323 320 318 322 326 329 331 335 335 335 335 332 331 329 327 319 313 309 308 308 308 308 308 308 308 309 309 309 310 310 309 308 307 307 306 307 308 309 310 311 312
313 313 312 312 312 313 319 318 317 317 321 324 327 330 330 332 335 335 332 330 327 323 316 313 309 308 309 309 309 309 308 309 309 310 310 310 308 307 305 304 303 303 303 303 303 303 304 304 305
313 315 314 312 311 313 316 319 320 317 323 327 330 329 327 327 332 330 329 326 321 317 313 310 308 309 309 309 309 309 309 309 310 310 309 308 305 303 304 307 308 309 309 310 310 310 309 308 307
316 317 317 312 312 310 315 325 315 318 323 327 328 326 324 324 327 326 324 321 317 314 312 309 309 309 309 310 310 309 310 311 310 308 305 303 304 308 309 309 310 310 310 310 311 311 309 311 310
315 317 317 314 309 312 317 321 313 315 321 324 324 323 322 322 323 323 319 317 315 313 311 309 309 309 309 310 310 310 311 310 307 304 302 304 309 309 308 309 309 309 309 310 310 311 310 309 310
317 317 316 317 312 313 316 315 312 312 315 320 319 319 317 317 316 317 315 314 313 312 311 309 309 308 309 310 310 311 309 307 305 302 303 309 309 308 309 309 309 309 309 311 311 310 310 310 309
316 316 316 312 309 313 316 315 313 310 311 314 315 315 314 313 312 313 312 312 311 310 310 309 308 308 310 310 310 309 308 306 304 301 307 310 308 308 308 309 309 309 309 310 309 310 311 310 309
315 317 315 310 307 310 311 316 313 309 310 311 312 312 312 310 309 310 310 309 309 309 308 308 308 309 310 310 310 309 309 307 304 302 310 310 308 308 308 308 309 308 309 311 311 311 311 311 310
311 317 313 315 308 307 309 314 310 307 308 307 307 307 307 308 308 308 308 308 308 308 308 308 309 310 310 311 310 311 310 308 305 302 310 310 309 308 307 308 308 308 309 310 310 310 310 309 310
314 308 309 310 320 324 307 319 310 308 310 309 309 309 309 309 310 308 307 307 307 307 308 309 310 310 311 311 311 310 310 308 306 301 310 310 310 309 307 308 308 308 309 309 310 310 310 309 310
310 306 308 308 312 315 310 325 311 309 311 311 309 308 309 309 309 309 309 308 308 309 310 310 310 311 310 310 309 309 309 308 306 302 306 310 310 310 309 309 309 308 308 309 311 310 309 309 308
305 307 309 310 318 334 308 313 318 311 312 311 309 309 308 308 309 309 309 309 310 310 310 310 309 309 308 308 309 309 308 308 306 304 301 310 311 311 310 310 310 310 310 310 310 310 309 309 308
308 311 335 334 335 320 303 312 315 310 309 309 309 309 308 308 308 309 309 309 309 309 309 309 309 309 309 309 309 309 309 308 306 304 300 305 310 310 310 310 310 309 309 310 310 309 309 309 309
309 310 328 330 319 316 305 317 316 308 306 307 307 307 308 308 308 308 308 308 308 308 309 308 308 308 308 309 308 308 308 309 307 305 302 300 308 309 308 307 306 308 309 309 309 308 308 307 308
310 315 306 311 305 314 313 311 308 307 307 308 308 308 308 308 307 307 307 307 308 308 308 309 309 309 309 308 308 308 308 309 307 306 305 302 301 308 308 307 303 306 308 308 307 306 306 305 306
307 306 313 315 321 318 313 311 323 311 310 309 309 308 308 306 305 305 305 306 306 307 308 308 308 308 307 307 307 307 307 308 307 306 306 305 303 301 307 307 302 304 306 305 304 304 304 305 304
310 311 306 309 309 317 314 320 310 312 310 310 308 307 306 305 304 304 304 304 304 304 305 304 304 304 304 303 304 304 305 306 307 307 307 307 306 303 301 306 305 301 303 303 303 302 302 302 302
305 308 308 315 313 308 311 320 305 308 309 308 308 306 305 303 302 302 302 303 303 303 303 303 303 302 302 303 303 303 303 303 303 303 304 306 307 306 301 301 305 303 301 301 301 301 301 301 301
Wind_Speed
11 8 6 3 5 4 8 5 2 6 7 3 5 2 2 6 3 3 14 11 14 13 11 9 8 8 9 10 9 8 7 6 6 6 5 7 5 4 5 6 6 7 8 9 9 9 9 9 8
18 9 6 3 6 9 9 5 7 5 7 9 7 5 3 4 5 10 13 15 14 12 11 8 8 7 8 8 8 7 7 7 6 6 6 5 5 6 5 5 5 6 6 7 9 9 9 9 9
20 12 6 4 7 13 8 8 9 9 9 6 5 3 3 5 9 14 12 16 14 11 10 9 7 6 6 5 5 5 4 4 4 4 5 5 6 6 6 7 6 6 5 5 7 8 8 9 9
13 7 2 7 15 11 4 9 9 13 5 5 5 7 5 7 11 9 15 15 13 11 9 8 7 6 4 3 2 2 3 3 4 5 6 6 6 7 7 7 7 7 7 7 7 8 8 8 9
17 6 8 11 15 4 3 7 15 11 9 9 7 6 6 9 13 14 14 14 12 12 10 8 8 5 3 3 3 2 3 4 5 7 8 8 8 9 9 10 10 9 9 9 9 10 10 11 10
7 8 11 15 16 5 5 7 12 10 9 9 6 10 8 12 15 17 16 14 13 12 10 8 6 5 2 1 2 3 4 5 6 8 10 11 11 12 12 12 12 12 11 11 12 13 13 12 12
11 11 14 19 13 9 7 10 11 11 10 9 9 8 8 12 18 18 16 14 12 11 9 7 6 3 1 1 3 5 6 7 9 11 12 13 14 15 15 14 14 14 14 15 15 16 15 15 15
7 10 9 14 16 12 9 9 5 8 7 9 7 4 9 17 21 20 17 14 13 11 9 6 4 3 2 4 6 8 9 10 11 13 14 15 16 17 17 18 18 17 18 18 19 17 19 19 19
9 8 13 13 18 14 13 8 6 3 9 5 6 4 11 24 22 20 17 15 13 11 8 6 5 3 5 7 9 11 12 13 14 16 17 18 19 20 20 20 20 21 21 21 21 21 20 21 22
9 12 15 4 10 11 16 11 12 7 10 5 7 8 18 24 22 21 18 15 12 10 9 8 6 6 7 9 11 12 13 15 16 17 18 19 20 21 21 21 22 22 22 23 23 24 23 23 20
6 15 6 7 4 9 16 10 8 9 9 10 14 16 24 26 23 20 18 15 13 11 8 7 7 7 9 10 12 13 14 15 16 16 17 18 19 20 21 22 22 22 23 23 24 24 23 24 24
12 3 5 6 3 8 13 12 7 11 2 6 6 18 28 28 25 22 19 16 12 10 8 8 7 8 9 11 13 14 14 15 16 16 17 18 19 20 21 22 22 23 23 23 23 23 23 23 23
9 7 6 7 7 8 12 7 4 6 2 8 13 20 24 26 23 20 17 14 12 10 9 8 7 8 10 12 13 14 15 15 16 17 18 19 20 21 22 23 23 23 23 23 23 23 22 23 22
8 11 11 6 6 4 9 5 4 3 4 11 16 19 19 20 22 20 17 14 12 10 9 8 7 8 9 11 12 14 14 16 17 18 19 20 21 22 23 24 23 23 23 22 22 22 22 22 22
15 11 9 7 3 3 6 5 4 3 8 13 15 16 16 17 19 17 15 13 12 10 9 8 9 8 10 12 13 14 16 17 18 19 20 21 22 23 24 24 23 22 22 21 18 17 18 17 18
7 10 9 4 1 1 6 13 5 6 10 13 15 14 13 14 16 16 15 14 12 10 9 10 10 10 11 13 15 16 17 18 19 20 21 22 23 23 23 22 20 20 18 15 13 12 14 13 14
5 13 12 6 4 2 6 6 5 5 8 11 11 11 11 11 14 15 14 13 12 12 12 12 11 11 12 14 16 17 17 17 19 20 22 23 22 21 20 18 17 15 11 9 10 9 10 12 12
13 13 7 9 3 3 8 4 3 4 7 9 9 9 10 10 10 13 14 14 14 15 14 13 13 12 13 15 17 16 16 17 19 20 21 21 20 18 15 13 12 10 8 7 7 9 10 12 13
9 12 13 4 3 2 6 4 4 4 5 8 9 9 9 10 9 13 15 16 16 16 15 15 13 12 12 15 15 15 16 17 18 20 21 20 18 15 12 10 9 8 6 7 9 10 11 10 13
8 14 7 5 4 2 2 7 4 2 2 4 6 8 8 9 9 12 13 13 15 15 15 13 11 11 12 14 13 14 16 18 19 19 19 18 16 13 10 9 8 7 7 7 7 9 10 9 11
4 12 8 6 5 4 2 4 5 3 2 1 1 4 3 5 8 11 15 16 14 12 11 10 9 10 12 12 13 15 16 18 19 19 18 17 15 13 10 8 7 7 7 7 8 8 9 9 8
5 2 4 11 6 3 4 4 4 2 5 5 5 4 3 3 4 2 5 7 9 9 8 8 8 9 11 12 14 15 17 18 19 19 17 16 16 14 11 9 9 9 9 9 9 8 9 8 7
4 1 6 5 4 3 2 1 4 5 6 5 5 5 5 5 5 5 4 3 4 5 6 6 7 8 10 12 14 16 18 19 19 19 18 16 15 14 11 10 10 10 10 10 10 9 8 7 7
7 5 4 3 2 0 3 3 3 6 5 4 4 5 5 5 5 4 4 3 2 2 5 6 6 5 9 11 14 16 18 18 18 18 17 16 15 14 14 11 11 11 12 11 11 11 10 8 8
1 1 2 2 0 2 1 2 2 6 4 3 3 5 5 4 4 3 2 0 3 6 8 8 7 6 10 14 17 19 19 19 18 17 16 15 15 14 14 12 11 11 11 11 13 13 11 10 9
3 1 1 4 4 2 0 4 2 5 5 3 5 4 5 6 6 5 4 4 7 8 8 11 12 14 16 19 21 21 20 20 18 17 17 16 14 14 15 15 15 14 14 13 14 14 12 12 11
3 1 1 5 2 2 1 2 4 4 4 6 5 5 6 6 6 6 6 6 7 9 10 13 16 18 19 20 21 21 19 20 18 17 17 17 16 15 15 15 14 14 14 14 14 13 12 12 13
2 5 2 0 3 3 3 3 3 8 11 10 5 5 4 7 7 7 7 7 7 8 8 9 12 15 18 20 20 18 18 19 18 18 18 17 17 17 16 15 15 14 13 13 13 12 12 12 11
3 2 2 1 2 1 1 2 2 8 13 12 5 5 4 6 7 9 8 8 7 8 9 10 11 13 14 15 15 16 17 18 19 21 21 19 19 18 17 16 15 15 14 14 14 13 13 13 12
2 1 2 2 3 2 2 3 2 7 12 10 3 3 1 4 6 7 8 8 9 10 12 14 15 17 18 18 18 18 17 17 19 21 23 22 21 20 19 18 18 16 16 15 15 14 14 14 14
Wind_Direction
198 188 183 173 217 234 219 179 122 153 156 123 139 203 113 32 360 52 142 144 143 143 142 124 111 102 94 90 92 95 95 90 81 74 68 54 38 34 23 14 10 8 13 19 21 20 18 18 19
200 181 171 208 234 209 203 161 179 140 123 124 124 124 120 85 82 124 137 147 146 145 143 143 120 110 101 99 95 86 78 69 66 60 54 47 32 25 20 359 0 2 352 358 3 6 5 4 5
189 176 184 204 223 224 213 190 139 127 131 153 133 71 89 102 120 141 153 150 147 143 142 141 130 126 114 108 97 87 83 67 41 35 36 33 23 15 10 358 339 335 335 325 341 345 346 345 346
167 168 162 223 211 217 220 164 154 146 130 158 156 124 102 127 142 140 150 150 150 147 145 149 147 149 137 118 101 78 55 44 28 5 3 9 8 360 349 343 341 327 319 313 315 322 322 321 323
162 166 190 214 214 199 167 166 167 160 140 154 167 137 121 144 150 142 150 148 153 154 155 162 159 160 148 116 95 55 23 359 349 340 339 337 334 330 323 316 313 309 306 305 305 309 313 310 307
171 195 194 208 205 181 179 171 176 167 151 151 142 140 127 161 151 152 154 160 161 165 166 165 162 160 140 65 25 358 342 337 333 327 323 319 316 314 310 309 306 303 300 299 296 295 296 296 297
204 197 203 205 180 171 174 164 184 177 155 162 148 138 136 154 162 159 171 175 175 175 167 161 162 174 146 341 324 321 318 317 314 313 311 309 308 307 306 305 303 299 295 291 286 284 286 287 287
194 212 187 199 190 183 156 160 172 182 147 143 158 160 161 169 165 162 176 181 180 174 170 186 182 204 273 302 307 309 308 307 306 305 305 305 306 306 306 305 303 299 294 291 289 286 280 279 281
179 199 201 192 194 174 159 168 160 166 145 153 166 140 145 168 163 168 176 174 178 176 182 197 221 253 279 291 299 303 305 305 306 306 306 306 305 303 302 300 298 296 294 291 289 287 283 280 280
204 203 201 184 195 175 169 185 161 163 157 169 167 159 153 166 169 172 174 180 184 188 196 210 227 260 276 287 296 299 302 304 304 305 306 307 306 304 302 300 298 295 293 291 288 287 286 284 281
183 199 146 158 158 166 165 167 173 173 190 193 191 170 164 168 173 178 185 189 193 196 209 224 247 268 282 292 299 303 306 306 306 308 309 309 307 306 303 302 300 297 295 291 290 289 285 283 281
165 112 145 131 127 153 164 155 175 192 142 167 174 176 168 169 176 183 191 192 195 202 217 239 260 277 292 301 305 307 307 308 310 311 310 309 307 306 306 304 303 301 298 296 294 292 290 287 284
176 145 97 112 119 129 144 159 190 187 206 176 158 165 167 168 177 185 191 195 202 211 228 246 268 289 303 309 312 312 312 312 312 312 312 312 312 311 309 307 305 303 300 299 297 295 293 292 290
131 123 117 102 107 114 163 140 179 186 160 143 158 161 163 169 180 187 193 201 209 219 236 256 277 299 313 317 318 316 314 314 315 316 316 316 314 312 310 308 306 304 301 298 296 296 295 293 291
140 115 122 69 88 118 157 149 192 138 148 149 160 159 166 174 184 192 200 209 215 229 247 266 284 298 310 318 321 320 319 318 318 319 318 317 316 314 310 307 304 300 299 299 301 303 302 299 296
143 158 165 76 60 121 226 190 133 153 161 164 168 171 178 187 192 203 208 214 224 238 256 269 277 291 306 318 322 321 320 320 321 321 321 320 319 317 315 312 308 303 302 302 307 308 307 305 305
181 179 181 141 43 161 220 158 132 160 178 180 187 183 190 199 209 214 219 227 234 242 254 264 273 286 304 314 318 320 320 322 323 324 324 324 324 322 320 318 317 315 310 314 321 322 324 323 319
175 160 164 156 106 190 187 125 128 168 190 199 202 203 211 216 221 227 234 239 242 249 255 261 267 281 297 311 319 320 322 324 324 324 324 324 326 328 330 332 335 338 339 331 332 333 331 327 326
159 159 157 125 47 199 191 186 148 152 196 215 219 220 229 240 243 240 244 250 251 254 256 256 262 276 298 312 317 318 322 324 325 327 327 327 327 326 327 331 336 339 342 330 335 335 336 339 338
164 157 136 101 34 242 175 214 161 163 201 233 239 240 247 259 264 253 244 244 250 250 250 251 256 276 296 307 310 316 320 324 327 329 329 328 326 323 320 318 319 325 328 328 329 333 339 341 348
93 188 166 140 129 76 225 199 170 94 129 110 344 268 263 271 275 261 246 245 245 247 244 241 252 277 297 304 309 313 318 324 329 331 331 329 326 317 314 309 309 313 315 314 320 327 336 336 344
154 27 117 134 160 169 338 194 161 132 123 96 77 77 65 41 25 358 230 225 227 229 224 233 259 286 301 304 306 312 315 320 325 326 326 327 325 313 304 296 293 298 301 304 310 319 317 325 329
96 90 107 99 91 161 52 251 121 157 162 121 70 58 52 45 53 55 77 158 188 199 216 246 274 295 298 306 311 312 313 316 320 322 322 320 321 320 302 291 292 289 291 295 302 305 307 309 310
132 125 92 100 124 205 21 317 184 174 162 132 89 54 43 47 54 66 82 99 136 215 250 267 275 298 308 315 319 319 314 308 313 316 316 313 314 314 311 299 293 290 289 287 289 289 301 305 296
59 169 76 64 168 244 2 245 46 134 107 89 58 43 41 49 48 59 77 200 269 273 270 250 259 293 306 311 313 311 312 308 303 306 306 307 308 307 306 307 304 302 297 287 281 281 286 289 280
89 36 222 168 189 155 14 225 131 136 99 98 89 68 66 59 49 35 360 314 298 283 265 252 265 285 299 305 307 304 301 302 296 300 301 302 300 301 305 306 303 298 293 289 285 283 284 285 280
159 208 55 104 56 211 167 233 207 197 181 146 79 75 50 26 8 351 338 324 321 312 287 273 275 285 296 301 304 302 297 297 290 291 296 300 296 294 295 295 293 290 290 287 286 287 282 286 286
29 122 147 198 150 221 186 257 213 189 174 164 98 45 18 1 354 344 330 321 322 328 329 309 300 301 301 300 301 303 302 296 285 284 290 293 296 293 292 293 296 294 288 287 288 286 287 287 297
143 165 74 56 338 257 213 227 216 184 174 163 112 23 4 14 43 48 44 31 17 2 345 333 321 314 313 316 317 312 306 299 288 283 285 290 288 288 285 284 285 286 286 285 285 285 283 287 290
325 308 260 240 179 58 331 267 126 163 166 175 187 346 31 105 84 59 40 24 4 346 332 323 315 311 306 305 306 305 306 303 299 294 287 281 281 281 279 277 277 279 281 281 282 281 282 284 285